Regional Weather Roundup
Issued by NWS Charleston, SC

Current Version | Previous Version | Text Only | Print | Product List | Glossary Off
Versions: 1 2 3 4 5 6 7 8 9 10 11 12 13 14 15 16 17 18 19 20 21 22 23 24 25 26 27 28 29 30 31 32 33 34 35 36 37 38 39 40 41 42 43 44 45 46 47 48 49 50
276 ASUS42 KCHS 170127 RWRCHS REGIONAL WEATHER ROUNDUP NATIONAL WEATHER SERVICE CHARLESTON SC 800 PM EST MON JAN 16 2017 NOTE: "FAIR" INDICATES FEW OR NO CLOUDS BELOW 12,000 FEET WITH NO SIGNIFICANT WEATHER AND/OR OBSTRUCTIONS TO VISIBILITY. NOT ALL STATIONS ARE QUALITY CONTROLLED. USE DATA WITH CAUTION... ESPECIALLY DEWPOINT OBSERVATIONS. SCZ027-030-031-034>040-042>050-170200- ...SOUTHEAST SOUTH CAROLINA... CITY SKY/WX TMP DP RH WIND PRES REMARKS N CHARLESTON CLOUDY 58 55 90 E5 30.32R WATERFRONT PRK N/A 58 56 92 NE6 30.31F MOUNT PLEASANT CLOUDY 57 54 88 CALM 30.32S JOHNS ISLAND CLOUDY 57 55 94 NE8 30.32R PINOPOLIS N/A 57 57 100 E7 30.24S MONCKS CORNER CLOUDY 55 54 94 E5 30.32S FOG SUMMERVILLE CLOUDY N/A N/A N/A E3 30.32S BEAUFORT MCAS PTCLDY 61 58 90 E6 30.30S BEAUFORT ARPT FAIR 59 57 94 E7 30.30S HILTON HEAD IS PTCLDY 57 55 94 NE8G14 30.31S WALTERBORO CLOUDY 61 N/A N/A E7 30.32S ALLENDALE MOCLDY 59 57 94 CALM 30.30R ...SOUTHERN MIDLANDS AND PEE DEE... CITY SKY/WX TMP DP RH WIND PRES REMARKS GEORGETOWN CLOUDY 54 50 87 NE5 30.35S KINGSTREE CLOUDY 52 52 100 NE3 30.34S FOG ORANGEBURG CLOUDY 56 55 97 E5 30.32S FOG BARNWELL CLOUDY 59 57 94 E6 30.31S AIKEN CLOUDY 54 54 100 E5 30.34S FOG MANNING CLOUDY 54 52 94 NE3 30.33F FOG COLUMBIA CLOUDY 55 52 89 E7 30.32S SUMTER FOG 52 52 100 E5 30.31F VSB 3/4 FLORENCE CLOUDY 54 52 93 CALM 30.35S MYRTLE BEACH MOCLDY 55 48 76 N8 30.36F N MYRTLE BEACH CLOUDY 54 51 90 NE5 30.34S $$ GAZ063-065-086>088-099>101-113>116-118-119-134>141-150-170200- ...SOUTHEAST GEORGIA... CITY SKY/WX TMP DP RH WIND PRES REMARKS SAVANNAH ARPT FOG 61 58 90 E8 30.30R VSB 1/2 HUNTER AAF CLOUDY 59 59 100 E10 30.28R FORT STEWART CLOUDY 60 58 92 E5 30.27S STATESBORO CLOUDY 65 61 85 SE3 30.30R SYLVANIA CLOUDY N/A N/A N/A SE3 30.30R CLAXTON FAIR N/A N/A N/A E3 30.29R ...CSRA...CENTRAL AND FAR SOUTHEAST GEORGIA... CITY SKY/WX TMP DP RH WIND PRES REMARKS THOMSON MOCLDY 59 59 97 E3 30.33S AUGUSTA-BUSH PTCLDY 58 54 86 E3 30.29S AUGUSTA-DANIEL CLOUDY 59 54 83 NE6 30.30S SWAINSBORO MOCLDY 68 59 73 SE8 30.28R VIDALIA PTCLDY 66 63 88 SE6 30.28R EASTMAN FAIR 58 48 71 CALM 30.28S HAZLEHURST MOCLDY 68 61 76 SE5 30.26R ALMA MOCLDY 67 60 78 E7 30.27R WAYCROSS CLOUDY 69 65 86 SE8 30.28R JESUP FAIR 61 55 82 E3 30.29R BAXLEY CLOUDY 66 64 94 SE5 30.27R BRUNSWICK FOG 59 59 100 NE10 30.29S VSB 1/2 SAINT SIMONS FOG 59 59 100 NE8 30.28S VSB 1/2 $$ SCZ027-028-034-036>038-045-046-048>050-GAZ119-141-170200- ...LAKE AND SUPPLEMENTAL COASTAL OBSERVATIONS... STATION/POSITION TIME TEMP WIND PRES WAVE SWELL AIR SEA DIR/SP/G HT/PER HT/PER/DIR (UTC) (F) (DEG/KT/KT) (MB) (FT/S) (FT/S/D) WINYAH BAY 0030 54 50/ 4 1027.0S LAKE MURRAY 0020 54 80/ 5/ 8 1026.1S ACE BASIN NERRS 0045 60 50/ 2 1026.0S FORT PULASKI 0100 55 55 80/ 13/ 15 1026.2 SAPELO ISLAND 0100 59 60/ 7 1025.0 $$ ANZ835-935-AMZ111-154-330-350-352-354-370-450-454-472-170200- ...C-MAN AND BUOY OBSERVATIONS... STATION/POSITION TIME TEMP WIND PRES WAVE SWELL AIR SEA DIR/SP/G HT/PER HT/PER/DIR (UTC) (F) (DEG/KT/KT) (MB) (FT/S) (FT/S/D) BUOY 41004 0050 66 70 20/ 14/ 16 1025.6F 4/ 6 3/120/10 BUOY 41008 0050 61 59 70/ 10/ 12 1025.2S 3/ 8 2/130/ 8 FOLLY BEACH CMAN 0100 55 50/ 11/ 13 1027.1S CAPERS NEARSHORE 0008 54 54 60/ 12/ 16 1026.5F FRIPP NEARSHORE 0108 56 56 70/ 14/ 17 1026.1S STATION/POSITION TIME TEMP WIND PRES WAVE SWELL AIR SEA DIR/SP/G HT/PER HT/PER/DIR (UTC) (F) (DEG/KT/KT) (MB) (FT/S) (FT/S/D) 5E ST. MARYS GA 0100 62 N/A 2/11 2/100/11 FRYING PAN BUOY 0100 40/ 14/ 17 1026.5 BUOY 41025 0050 55 73 20/ 12/ 14 1027.2F 3/ 7 3/ 80/ 7 CAPE LOOKOUT NC 0100 48 10/ 7/ 9 1027.7F BUOY 41002 0050 70 71 140/ 8/ 10 1027.1R 4/ 8 3/ 20/ 8 BUOY 41010 NOT AVBL ST AUGUSTINE FL 0100 67 66 100/ 10/ 10 1025.7R $$

USA.gov is the U.S. government's official web portal to all federal, state and local government web resources and services.